QPF
0.00 0.00 0.00 0.00 0.00 0.00 0.00 0.00 0.00 0.00 0.00 0.00 0.00 0.00 0.00 0.00 0.00 0.00 0.00 0.01 0.01 0.01 0.01 0.02 0.03 0.03 0.02 0.01 0.01 0.01 0.01 0.01 0.02 0.02 0.02 0.02 0.02 0.03 0.03 0.02 0.03 0.04 0.03 0.03 0.03 0.03 0.02 0.02 0.01
0.00 0.00 0.00 0.00 0.00 0.00 0.00 0.00 0.00 0.00 0.00 0.00 0.00 0.00 0.00 0.00 0.00 0.00 0.01 0.01 0.01 0.01 0.02 0.02 0.03 0.03 0.02 0.01 0.01 0.01 0.01 0.01 0.01 0.02 0.02 0.03 0.03 0.05 0.06 0.05 0.06 0.06 0.04 0.02 0.03 0.02 0.01 0.01 0.01
0.00 0.00 0.00 0.00 0.00 0.00 0.00 0.00 0.00 0.00 0.00 0.00 0.00 0.00 0.00 0.00 0.00 0.00 0.01 0.02 0.01 0.02 0.02 0.03 0.03 0.03 0.02 0.02 0.01 0.01 0.01 0.01 0.01 0.01 0.02 0.03 0.03 0.04 0.04 0.04 0.05 0.04 0.02 0.02 0.02 0.02 0.02 0.02 0.02
0.00 0.00 0.00 0.00 0.00 0.00 0.00 0.00 0.00 0.00 0.00 0.00 0.00 0.00 0.00 0.00 0.00 0.00 0.01 0.02 0.02 0.03 0.04 0.04 0.02 0.02 0.02 0.02 0.02 0.01 0.01 0.01 0.02 0.02 0.03 0.03 0.03 0.04 0.05 0.04 0.02 0.02 0.02 0.03 0.02 0.02 0.03 0.03 0.02
0.00 0.00 0.00 0.00 0.00 0.00 0.00 0.00 0.00 0.00 0.00 0.00 0.00 0.00 0.00 0.00 0.00 0.00 0.00 0.01 0.01 0.03 0.03 0.02 0.02 0.02 0.02 0.03 0.02 0.02 0.02 0.01 0.02 0.02 0.03 0.04 0.04 0.04 0.04 0.03 0.02 0.01 0.01 0.02 0.02 0.01 0.02 0.03 0.02
0.00 0.00 0.00 0.00 0.00 0.00 0.00 0.00 0.00 0.00 0.00 0.00 0.00 0.00 0.00 0.00 0.00 0.00 0.01 0.01 0.00 0.01 0.02 0.01 0.03 0.03 0.03 0.03 0.03 0.02 0.02 0.02 0.02 0.02 0.03 0.04 0.04 0.04 0.04 0.04 0.03 0.02 0.02 0.02 0.02 0.01 0.01 0.02 0.02
0.00 0.00 0.00 0.00 0.00 0.00 0.00 0.00 0.00 0.00 0.00 0.00 0.00 0.00 0.00 0.00 0.00 0.00 0.01 0.01 0.00 0.01 0.01 0.01 0.02 0.02 0.02 0.02 0.02 0.02 0.01 0.02 0.02 0.03 0.02 0.03 0.03 0.03 0.03 0.03 0.04 0.04 0.03 0.03 0.03 0.02 0.01 0.02 0.02
0.00 0.00 0.00 0.00 0.00 0.00 0.00 0.00 0.00 0.00 0.00 0.00 0.00 0.00 0.00 0.00 0.00 0.00 0.01 0.01 0.01 0.01 0.01 0.01 0.01 0.01 0.01 0.01 0.02 0.02 0.02 0.01 0.02 0.02 0.02 0.02 0.02 0.02 0.03 0.02 0.03 0.04 0.04 0.04 0.03 0.03 0.02 0.02 0.02
0.00 0.00 0.00 0.00 0.00 0.00 0.00 0.00 0.00 0.00 0.00 0.00 0.00 0.00 0.00 0.00 0.00 0.00 0.01 0.01 0.01 0.01 0.01 0.01 0.01 0.01 0.01 0.01 0.01 0.02 0.03 0.02 0.01 0.01 0.01 0.01 0.02 0.02 0.02 0.01 0.02 0.03 0.03 0.04 0.04 0.03 0.03 0.02 0.02
0.00 0.00 0.00 0.00 0.00 0.00 0.00 0.00 0.00 0.00 0.00 0.00 0.00 0.00 0.00 0.00 0.00 0.00 0.00 0.01 0.01 0.01 0.01 0.01 0.01 0.01 0.01 0.01 0.02 0.03 0.04 0.04 0.03 0.01 0.01 0.02 0.02 0.02 0.02 0.02 0.02 0.02 0.02 0.02 0.03 0.03 0.04 0.03 0.03
0.00 0.00 0.00 0.00 0.00 0.00 0.00 0.00 0.00 0.00 0.00 0.00 0.00 0.00 0.00 0.00 0.00 0.00 0.01 0.01 0.01 0.01 0.02 0.01 0.01 0.01 0.01 0.01 0.01 0.02 0.03 0.04 0.04 0.03 0.02 0.01 0.02 0.02 0.02 0.02 0.02 0.02 0.02 0.02 0.02 0.03 0.04 0.04 0.03
0.00 0.00 0.00 0.00 0.00 0.00 0.00 0.00 0.00 0.00 0.00 0.00 0.00 0.00 0.00 0.01 0.01 0.01 0.01 0.01 0.02 0.02 0.02 0.01 0.01 0.01 0.01 0.01 0.01 0.01 0.02 0.03 0.03 0.03 0.03 0.02 0.02 0.03 0.03 0.02 0.02 0.02 0.03 0.03 0.03 0.03 0.04 0.05 0.05
0.00 0.00 0.00 0.00 0.00 0.00 0.00 0.00 0.00 0.00 0.00 0.00 0.00 0.00 0.00 0.00 0.01 0.01 0.01 0.01 0.02 0.03 0.02 0.01 0.01 0.01 0.01 0.01 0.01 0.01 0.01 0.02 0.02 0.02 0.02 0.02 0.03 0.04 0.04 0.03 0.03 0.03 0.04 0.04 0.03 0.03 0.05 0.06 0.06
0.00 0.00 0.00 0.00 0.00 0.00 0.00 0.00 0.00 0.00 0.00 0.00 0.00 0.00 0.00 0.01 0.01 0.01 0.02 0.02 0.04 0.05 0.03 0.02 0.01 0.01 0.01 0.01 0.01 0.01 0.01 0.01 0.02 0.02 0.02 0.02 0.02 0.04 0.05 0.05 0.04 0.04 0.03 0.03 0.02 0.02 0.05 0.07 0.06
0.00 0.00 0.00 0.00 0.00 0.00 0.00 0.00 0.00 0.00 0.00 0.00 0.00 0.00 0.00 0.01 0.01 0.01 0.02 0.01 0.03 0.05 0.03 0.02 0.02 0.01 0.01 0.01 0.01 0.02 0.02 0.02 0.02 0.01 0.02 0.02 0.03 0.03 0.03 0.05 0.05 0.05 0.05 0.03 0.03 0.02 0.03 0.08 0.08
0.00 0.00 0.00 0.00 0.00 0.00 0.00 0.00 0.00 0.00 0.00 0.00 0.00 0.00 0.00 0.00 0.01 0.01 0.01 0.01 0.02 0.03 0.03 0.02 0.02 0.02 0.01 0.01 0.01 0.01 0.02 0.03 0.03 0.02 0.02 0.03 0.04 0.04 0.03 0.03 0.04 0.05 0.05 0.05 0.05 0.05 0.04 0.06 0.10
0.00 0.00 0.00 0.00 0.00 0.00 0.00 0.00 0.00 0.00 0.00 0.00 0.00 0.00 0.00 0.00 0.01 0.01 0.00 0.01 0.01 0.02 0.02 0.01 0.02 0.02 0.01 0.01 0.01 0.01 0.01 0.02 0.03 0.03 0.02 0.03 0.05 0.07 0.06 0.05 0.03 0.03 0.03 0.04 0.05 0.07 0.08 0.07 0.09
0.00 0.00 0.00 0.00 0.00 0.00 0.00 0.00 0.00 0.00 0.00 0.00 0.00 0.00 0.00 0.00 0.00 0.01 0.00 0.01 0.00 0.00 0.01 0.00 0.01 0.02 0.02 0.02 0.02 0.01 0.01 0.01 0.01 0.01 0.02 0.03 0.05 0.08 0.08 0.07 0.05 0.04 0.02 0.02 0.03 0.04 0.05 0.08 0.09
0.00 0.00 0.00 0.00 0.00 0.00 0.00 0.00 0.00 0.00 0.00 0.00 0.00 0.00 0.00 0.01 0.01 0.00 0.00 0.00 0.00 0.00 0.00 0.00 0.00 0.01 0.01 0.02 0.02 0.02 0.01 0.01 0.01 0.01 0.01 0.02 0.04 0.06 0.07 0.07 0.06 0.04 0.03 0.02 0.03 0.03 0.04 0.06 0.09
0.01 0.01 0.01 0.00 0.00 0.00 0.00 0.00 0.00 0.00 0.00 0.00 0.00 0.00 0.00 0.01 0.00 0.00 0.00 0.00 0.00 0.00 0.00 0.00 0.00 0.00 0.00 0.01 0.01 0.01 0.01 0.01 0.01 0.01 0.01 0.02 0.03 0.05 0.06 0.06 0.06 0.04 0.03 0.02 0.02 0.03 0.04 0.05 0.07
0.01 0.02 0.02 0.02 0.01 0.01 0.00 0.01 0.00 0.00 0.00 0.00 0.00 0.00 0.01 0.01 0.01 0.00 0.00 0.00 0.00 0.00 0.00 0.00 0.00 0.00 0.00 0.01 0.01 0.01 0.01 0.01 0.02 0.01 0.01 0.01 0.02 0.02 0.03 0.04 0.05 0.04 0.03 0.02 0.02 0.03 0.04 0.05 0.05
0.02 0.01 0.01 0.02 0.03 0.02 0.01 0.01 0.01 0.01 0.01 0.01 0.00 0.00 0.01 0.01 0.01 0.01 0.01 0.01 0.00 0.00 0.00 0.00 0.00 0.00 0.00 0.00 0.01 0.01 0.02 0.02 0.02 0.02 0.02 0.01 0.01 0.01 0.01 0.02 0.02 0.03 0.02 0.01 0.02 0.03 0.03 0.05 0.05
0.01 0.00 0.00 0.01 0.02 0.02 0.02 0.02 0.02 0.01 0.01 0.01 0.00 0.01 0.01 0.02 0.02 0.01 0.02 0.01 0.01 0.00 0.00 0.00 0.00 0.00 0.00 0.00 0.01 0.01 0.02 0.02 0.02 0.03 0.03 0.02 0.01 0.01 0.01 0.01 0.01 0.01 0.02 0.01 0.02 0.03 0.03 0.04 0.04
0.00 0.00 0.00 0.00 0.02 0.02 0.01 0.02 0.02 0.02 0.02 0.01 0.01 0.01 0.01 0.02 0.02 0.02 0.02 0.01 0.01 0.00 0.00 0.00 0.00 0.00 0.00 0.00 0.00 0.01 0.01 0.02 0.02 0.03 0.03 0.03 0.02 0.01 0.01 0.01 0.01 0.01 0.01 0.02 0.02 0.03 0.03 0.03 0.03
0.01 0.01 0.01 0.01 0.01 0.01 0.01 0.02 0.03 0.03 0.03 0.02 0.02 0.01 0.01 0.02 0.02 0.02 0.02 0.02 0.01 0.01 0.01 0.01 0.00 0.00 0.00 0.01 0.00 0.01 0.01 0.01 0.02 0.03 0.03 0.02 0.02 0.02 0.02 0.01 0.01 0.01 0.02 0.02 0.02 0.03 0.04 0.02 0.02
0.01 0.02 0.02 0.01 0.01 0.00 0.01 0.02 0.04 0.03 0.03 0.02 0.02 0.01 0.01 0.01 0.02 0.02 0.01 0.01 0.01 0.01 0.01 0.01 0.01 0.00 0.01 0.01 0.01 0.01 0.01 0.02 0.02 0.02 0.02 0.02 0.02 0.02 0.01 0.01 0.01 0.01 0.01 0.02 0.03 0.04 0.04 0.03 0.03
0.01 0.01 0.02 0.02 0.01 0.01 0.01 0.02 0.02 0.02 0.02 0.02 0.02 0.03 0.03 0.03 0.03 0.02 0.01 0.01 0.01 0.01 0.01 0.01 0.01 0.01 0.01 0.01 0.01 0.01 0.01 0.01 0.01 0.01 0.02 0.02 0.02 0.01 0.01 0.01 0.01 0.01 0.01 0.02 0.03 0.05 0.05 0.05 0.05
0.01 0.01 0.01 0.02 0.03 0.02 0.02 0.02 0.03 0.03 0.03 0.03 0.03 0.04 0.05 0.05 0.03 0.02 0.02 0.02 0.01 0.01 0.02 0.02 0.02 0.01 0.02 0.02 0.01 0.01 0.01 0.01 0.01 0.01 0.01 0.02 0.02 0.02 0.01 0.01 0.01 0.01 0.01 0.02 0.03 0.04 0.05 0.05 0.07
0.02 0.02 0.02 0.02 0.02 0.03 0.03 0.03 0.04 0.04 0.05 0.05 0.04 0.05 0.05 0.05 0.05 0.04 0.03 0.03 0.03 0.02 0.03 0.04 0.03 0.02 0.02 0.02 0.02 0.01 0.01 0.01 0.01 0.01 0.01 0.01 0.01 0.02 0.02 0.02 0.01 0.01 0.01 0.01 0.02 0.02 0.03 0.05 0.06
0.02 0.03 0.03 0.03 0.02 0.02 0.03 0.04 0.04 0.04 0.04 0.04 0.03 0.03 0.03 0.03 0.03 0.04 0.04 0.03 0.03 0.04 0.05 0.05 0.04 0.03 0.03 0.03 0.02 0.01 0.01 0.01 0.01 0.00 0.00 0.00 0.01 0.01 0.02 0.02 0.02 0.01 0.01 0.01 0.01 0.01 0.02 0.03 0.05
MSLP
1014.23 1014.50 1015.13 1016.06 1017.21 1018.44 1019.59 1020.56 1021.25 1021.64 1021.77 1021.73 1021.61 1021.49 1021.44 1021.47 1021.56 1021.65 1021.67 1021.60 1021.39 1021.07 1020.67 1020.24 1019.83 1019.46 1019.13 1018.84 1018.56 1018.27 1017.96 1017.65 1017.37 1017.15 1017.04 1017.04 1017.15 1017.33 1017.54 1017.73 1017.85 1017.91 1017.90 1017.85 1017.80 1017.78 1017.80 1017.87 1017.96
1014.62 1015.07 1015.86 1016.93 1018.15 1019.39 1020.50 1021.37 1021.94 1022.20 1022.22 1022.10 1021.93 1021.80 1021.75 1021.80 1021.92 1022.02 1022.06 1021.98 1021.76 1021.42 1021.00 1020.55 1020.10 1019.69 1019.33 1018.99 1018.66 1018.33 1017.99 1017.66 1017.37 1017.17 1017.08 1017.11 1017.24 1017.43 1017.65 1017.83 1017.95 1018.00 1017.99 1017.96 1017.93 1017.94 1018.00 1018.10 1018.21
1015.15 1015.76 1016.68 1017.83 1019.06 1020.25 1021.25 1021.99 1022.42 1022.55 1022.47 1022.29 1022.10 1021.98 1021.97 1022.07 1022.21 1022.35 1022.40 1022.32 1022.09 1021.74 1021.29 1020.81 1020.33 1019.88 1019.47 1019.08 1018.71 1018.34 1017.98 1017.64 1017.37 1017.18 1017.10 1017.14 1017.28 1017.46 1017.66 1017.82 1017.92 1017.97 1017.97 1017.96 1017.98 1018.05 1018.17 1018.31 1018.46
1015.77 1016.53 1017.54 1018.70 1019.89 1020.97 1021.84 1022.41 1022.69 1022.70 1022.55 1022.33 1022.15 1022.07 1022.11 1022.26 1022.44 1022.60 1022.65 1022.57 1022.33 1021.95 1021.49 1020.98 1020.47 1019.99 1019.55 1019.13 1018.72 1018.33 1017.95 1017.62 1017.35 1017.17 1017.10 1017.14 1017.25 1017.42 1017.58 1017.71 1017.79 1017.83 1017.85 1017.89 1017.97 1018.11 1018.29 1018.50 1018.69
1016.44 1017.31 1018.37 1019.51 1020.61 1021.55 1022.25 1022.65 1022.79 1022.71 1022.51 1022.30 1022.15 1022.12 1022.22 1022.40 1022.61 1022.77 1022.81 1022.70 1022.44 1022.05 1021.57 1021.05 1020.53 1020.04 1019.57 1019.14 1018.72 1018.31 1017.93 1017.59 1017.33 1017.15 1017.08 1017.10 1017.19 1017.32 1017.44 1017.54 1017.61 1017.65 1017.69 1017.78 1017.92 1018.13 1018.39 1018.65 1018.88
1017.15 1018.10 1019.17 1020.24 1021.21 1021.99 1022.52 1022.77 1022.79 1022.65 1022.44 1022.26 1022.16 1022.19 1022.34 1022.54 1022.75 1022.89 1022.89 1022.75 1022.45 1022.04 1021.56 1021.04 1020.53 1020.05 1019.59 1019.15 1018.73 1018.33 1017.94 1017.61 1017.34 1017.16 1017.07 1017.07 1017.13 1017.22 1017.31 1017.37 1017.43 1017.47 1017.55 1017.67 1017.87 1018.14 1018.44 1018.75 1019.00
1017.89 1018.88 1019.91 1020.89 1021.72 1022.33 1022.69 1022.82 1022.76 1022.59 1022.40 1022.27 1022.25 1022.34 1022.52 1022.73 1022.91 1023.00 1022.95 1022.75 1022.42 1021.99 1021.51 1021.02 1020.53 1020.08 1019.64 1019.23 1018.81 1018.41 1018.03 1017.69 1017.41 1017.22 1017.12 1017.09 1017.12 1017.17 1017.23 1017.28 1017.33 1017.38 1017.48 1017.63 1017.86 1018.15 1018.48 1018.80 1019.05
1018.65 1019.65 1020.62 1021.48 1022.16 1022.61 1022.83 1022.85 1022.74 1022.58 1022.44 1022.39 1022.44 1022.58 1022.78 1022.98 1023.12 1023.14 1023.02 1022.77 1022.40 1021.97 1021.50 1021.03 1020.59 1020.18 1019.78 1019.39 1018.99 1018.60 1018.21 1017.87 1017.58 1017.38 1017.25 1017.20 1017.21 1017.24 1017.28 1017.31 1017.36 1017.42 1017.52 1017.69 1017.92 1018.20 1018.51 1018.79 1019.02
1019.45 1020.42 1021.30 1022.03 1022.56 1022.86 1022.96 1022.91 1022.78 1022.65 1022.57 1022.59 1022.71 1022.90 1023.11 1023.28 1023.36 1023.32 1023.13 1022.83 1022.44 1022.00 1021.56 1021.14 1020.74 1020.37 1020.01 1019.65 1019.27 1018.89 1018.51 1018.16 1017.87 1017.65 1017.51 1017.44 1017.42 1017.44 1017.46 1017.50 1017.53 1017.60 1017.69 1017.84 1018.05 1018.29 1018.53 1018.76 1018.92
1020.26 1021.16 1021.95 1022.54 1022.92 1023.09 1023.09 1022.99 1022.85 1022.76 1022.75 1022.84 1023.01 1023.24 1023.45 1023.59 1023.62 1023.52 1023.28 1022.95 1022.55 1022.12 1021.71 1021.33 1020.99 1020.66 1020.34 1020.00 1019.64 1019.26 1018.89 1018.54 1018.25 1018.02 1017.87 1017.79 1017.77 1017.77 1017.79 1017.81 1017.85 1017.90 1017.98 1018.09 1018.24 1018.41 1018.57 1018.70 1018.78
1021.04 1021.86 1022.52 1022.98 1023.22 1023.28 1023.20 1023.06 1022.93 1022.87 1022.91 1023.05 1023.27 1023.51 1023.72 1023.84 1023.83 1023.69 1023.43 1023.09 1022.70 1022.31 1021.93 1021.60 1021.29 1021.00 1020.71 1020.39 1020.04 1019.68 1019.31 1018.98 1018.69 1018.47 1018.32 1018.24 1018.20 1018.20 1018.21 1018.22 1018.25 1018.28 1018.33 1018.40 1018.48 1018.57 1018.63 1018.66 1018.64
1021.74 1022.46 1023.00 1023.32 1023.45 1023.40 1023.26 1023.09 1022.96 1022.92 1023.00 1023.17 1023.41 1023.65 1023.85 1023.96 1023.94 1023.79 1023.54 1023.22 1022.86 1022.51 1022.18 1021.89 1021.61 1021.34 1021.06 1020.76 1020.42 1020.08 1019.73 1019.42 1019.15 1018.95 1018.81 1018.72 1018.68 1018.66 1018.66 1018.66 1018.66 1018.67 1018.68 1018.71 1018.73 1018.73 1018.71 1018.64 1018.53
1022.30 1022.90 1023.32 1023.53 1023.55 1023.43 1023.24 1023.04 1022.90 1022.87 1022.95 1023.13 1023.37 1023.61 1023.81 1023.91 1023.91 1023.79 1023.58 1023.30 1023.00 1022.70 1022.42 1022.15 1021.89 1021.63 1021.35 1021.05 1020.73 1020.40 1020.09 1019.80 1019.57 1019.40 1019.28 1019.20 1019.14 1019.11 1019.08 1019.05 1019.02 1019.00 1018.99 1018.97 1018.94 1018.90 1018.81 1018.67 1018.49
1022.67 1023.17 1023.48 1023.59 1023.54 1023.36 1023.12 1022.90 1022.75 1022.70 1022.77 1022.93 1023.15 1023.37 1023.57 1023.69 1023.72 1023.66 1023.52 1023.32 1023.10 1022.85 1022.61 1022.36 1022.11 1021.83 1021.54 1021.24 1020.93 1020.62 1020.35 1020.11 1019.92 1019.78 1019.68 1019.61 1019.54 1019.48 1019.41 1019.35 1019.28 1019.23 1019.19 1019.15 1019.10 1019.03 1018.91 1018.75 1018.54
1022.86 1023.26 1023.48 1023.53 1023.42 1023.20 1022.95 1022.70 1022.52 1022.44 1022.47 1022.59 1022.77 1022.98 1023.18 1023.33 1023.42 1023.44 1023.39 1023.29 1023.15 1022.97 1022.76 1022.52 1022.26 1021.96 1021.65 1021.34 1021.03 1020.75 1020.52 1020.33 1020.20 1020.10 1020.02 1019.94 1019.86 1019.76 1019.65 1019.54 1019.44 1019.35 1019.29 1019.25 1019.20 1019.14 1019.03 1018.87 1018.66
1022.91 1023.23 1023.39 1023.39 1023.25 1023.02 1022.75 1022.48 1022.26 1022.13 1022.10 1022.17 1022.30 1022.49 1022.69 1022.89 1023.05 1023.17 1023.23 1023.24 1023.19 1023.07 1022.90 1022.66 1022.38 1022.06 1021.72 1021.39 1021.09 1020.84 1020.64 1020.51 1020.42 1020.36 1020.29 1020.22 1020.11 1019.97 1019.81 1019.65 1019.51 1019.40 1019.32 1019.28 1019.25 1019.22 1019.14 1019.02 1018.84
1022.90 1023.16 1023.28 1023.26 1023.12 1022.88 1022.58 1022.29 1022.02 1021.83 1021.73 1021.72 1021.81 1021.97 1022.18 1022.42 1022.66 1022.88 1023.06 1023.18 1023.22 1023.18 1023.04 1022.82 1022.52 1022.17 1021.81 1021.47 1021.17 1020.94 1020.78 1020.68 1020.63 1020.60 1020.55 1020.47 1020.34 1020.16 1019.95 1019.74 1019.56 1019.42 1019.33 1019.30 1019.29 1019.29 1019.27 1019.19 1019.06
1022.91 1023.14 1023.24 1023.22 1023.07 1022.82 1022.51 1022.17 1021.85 1021.58 1021.39 1021.30 1021.33 1021.45 1021.67 1021.95 1022.28 1022.60 1022.90 1023.13 1023.27 1023.29 1023.20 1022.99 1022.69 1022.34 1021.96 1021.61 1021.32 1021.10 1020.97 1020.91 1020.88 1020.87 1020.83 1020.74 1020.58 1020.37 1020.13 1019.88 1019.66 1019.49 1019.38 1019.35 1019.35 1019.38 1019.40 1019.37 1019.30
1023.03 1023.23 1023.33 1023.30 1023.15 1022.89 1022.54 1022.14 1021.74 1021.38 1021.10 1020.92 1020.88 1020.96 1021.18 1021.50 1021.89 1022.31 1022.71 1023.05 1023.28 1023.38 1023.35 1023.18 1022.90 1022.56 1022.19 1021.85 1021.57 1021.37 1021.25 1021.20 1021.20 1021.19 1021.15 1021.05 1020.89 1020.66 1020.39 1020.11 1019.86 1019.66 1019.53 1019.48 1019.48 1019.51 1019.55 1019.55 1019.51
1023.28 1023.48 1023.58 1023.54 1023.37 1023.07 1022.66 1022.19 1021.69 1021.22 1020.84 1020.57 1020.45 1020.49 1020.70 1021.04 1021.48 1021.97 1022.46 1022.88 1023.20 1023.39 1023.43 1023.32 1023.10 1022.80 1022.47 1022.16 1021.90 1021.72 1021.62 1021.58 1021.57 1021.57 1021.53 1021.43 1021.26 1021.02 1020.75 1020.46 1020.19 1019.96 1019.81 1019.72 1019.69 1019.70 1019.71 1019.71 1019.68
1023.68 1023.87 1023.95 1023.88 1023.67 1023.31 1022.82 1022.25 1021.65 1021.07 1020.58 1020.22 1020.03 1020.03 1020.21 1020.55 1021.01 1021.55 1022.09 1022.59 1022.99 1023.25 1023.38 1023.36 1023.22 1023.00 1022.74 1022.49 1022.27 1022.12 1022.03 1021.99 1021.98 1021.97 1021.93 1021.83 1021.67 1021.45 1021.19 1020.91 1020.63 1020.39 1020.20 1020.06 1019.97 1019.92 1019.89 1019.85 1019.80
1024.15 1024.33 1024.37 1024.26 1023.98 1023.53 1022.95 1022.28 1021.58 1020.90 1020.32 1019.88 1019.63 1019.57 1019.72 1020.04 1020.50 1021.04 1021.60 1022.14 1022.59 1022.93 1023.14 1023.22 1023.19 1023.08 1022.92 1022.76 1022.61 1022.49 1022.42 1022.39 1022.37 1022.35 1022.31 1022.22 1022.08 1021.90 1021.67 1021.41 1021.15 1020.90 1020.67 1020.47 1020.31 1020.18 1020.07 1019.97 1019.87
1024.62 1024.76 1024.76 1024.57 1024.21 1023.67 1023.00 1022.24 1021.45 1020.70 1020.05 1019.56 1019.27 1019.17 1019.28 1019.56 1019.98 1020.49 1021.04 1021.56 1022.04 1022.42 1022.71 1022.90 1022.99 1023.01 1022.97 1022.92 1022.85 1022.79 1022.75 1022.72 1022.69 1022.67 1022.62 1022.55 1022.45 1022.30 1022.12 1021.91 1021.67 1021.41 1021.16 1020.90 1020.66 1020.44 1020.23 1020.05 1019.90
1024.97 1025.07 1025.00 1024.74 1024.29 1023.67 1022.92 1022.10 1021.27 1020.49 1019.83 1019.33 1019.02 1018.91 1018.98 1019.21 1019.57 1020.01 1020.49 1020.97 1021.42 1021.82 1022.16 1022.43 1022.64 1022.79 1022.89 1022.96 1022.99 1022.99 1022.98 1022.96 1022.93 1022.90 1022.85 1022.80 1022.72 1022.62 1022.50 1022.33 1022.13 1021.88 1021.60 1021.30 1020.99 1020.68 1020.39 1020.13 1019.91
1025.14 1025.18 1025.03 1024.70 1024.18 1023.50 1022.72 1021.89 1021.07 1020.33 1019.72 1019.27 1018.99 1018.88 1018.93 1019.11 1019.38 1019.72 1020.09 1020.48 1020.86 1021.23 1021.59 1021.92 1022.23 1022.50 1022.73 1022.91 1023.04 1023.12 1023.15 1023.14 1023.11 1023.06 1023.01 1022.96 1022.91 1022.85 1022.77 1022.66 1022.49 1022.26 1021.97 1021.64 1021.27 1020.89 1020.52 1020.20 1019.94
1025.09 1025.06 1024.84 1024.44 1023.88 1023.20 1022.43 1021.66 1020.93 1020.29 1019.79 1019.44 1019.25 1019.18 1019.23 1019.36 1019.54 1019.75 1019.99 1020.24 1020.52 1020.82 1021.16 1021.51 1021.88 1022.25 1022.58 1022.87 1023.09 1023.24 1023.31 1023.31 1023.27 1023.21 1023.15 1023.09 1023.05 1023.02 1022.97 1022.89 1022.75 1022.54 1022.25 1021.90 1021.49 1021.07 1020.66 1020.30 1020.00
1024.82 1024.72 1024.45 1024.02 1023.46 1022.81 1022.13 1021.47 1020.89 1020.43 1020.10 1019.91 1019.83 1019.85 1019.92 1020.01 1020.10 1020.19 1020.28 1020.38 1020.52 1020.72 1020.99 1021.33 1021.72 1022.15 1022.56 1022.93 1023.22 1023.42 1023.53 1023.54 1023.49 1023.41 1023.32 1023.25 1023.20 1023.17 1023.13 1023.07 1022.95 1022.75 1022.47 1022.10 1021.68 1021.24 1020.81 1020.42 1020.11
1024.37 1024.21 1023.91 1023.49 1022.97 1022.41 1021.87 1021.39 1021.01 1020.76 1020.65 1020.65 1020.73 1020.85 1020.97 1021.04 1021.07 1021.04 1020.98 1020.93 1020.93 1021.01 1021.19 1021.48 1021.86 1022.30 1022.76 1023.18 1023.52 1023.76 1023.89 1023.90 1023.84 1023.73 1023.61 1023.50 1023.42 1023.36 1023.31 1023.24 1023.12 1022.92 1022.64 1022.28 1021.86 1021.41 1020.98 1020.59 1020.29
1023.83 1023.64 1023.35 1022.96 1022.53 1022.11 1021.73 1021.46 1021.31 1021.30 1021.42 1021.62 1021.87 1022.10 1022.28 1022.36 1022.33 1022.22 1022.04 1021.86 1021.73 1021.69 1021.77 1021.99 1022.33 1022.76 1023.22 1023.66 1024.03 1024.29 1024.42 1024.44 1024.35 1024.21 1024.05 1023.89 1023.76 1023.65 1023.56 1023.46 1023.32 1023.11 1022.82 1022.46 1022.04 1021.60 1021.17 1020.80 1020.50
1023.31 1023.12 1022.85 1022.54 1022.23 1021.96 1021.77 1021.71 1021.78 1022.00 1022.32 1022.70 1023.10 1023.44 1023.68 1023.78 1023.73 1023.56 1023.31 1023.04 1022.80 1022.67 1022.66 1022.81 1023.10 1023.49 1023.93 1024.36 1024.72 1024.98 1025.11 1025.11 1025.00 1024.83 1024.62 1024.41 1024.22 1024.05 1023.90 1023.75 1023.56 1023.32 1023.01 1022.65 1022.23 1021.80 1021.39 1021.02 1020.73
Thickness
5706 5708 5711 5711 5706 5702 5702 5706 5708 5705 5707 5711 5712 5713 5715 5714 5712 5707 5710 5715 5714 5713 5710 5707 5705 5705 5704 5704 5704 5704 5704 5705 5705 5705 5706 5706 5706 5706 5706 5707 5706 5706 5707 5707 5707 5707 5707 5707 5707
5704 5706 5707 5705 5698 5695 5700 5705 5702 5705 5707 5706 5706 5707 5707 5708 5708 5707 5707 5708 5709 5708 5706 5704 5701 5701 5701 5700 5700 5700 5701 5701 5701 5702 5702 5703 5703 5703 5703 5703 5703 5703 5703 5703 5703 5703 5704 5704 5704
5701 5703 5700 5697 5693 5697 5699 5700 5702 5700 5700 5701 5701 5703 5703 5702 5702 5703 5704 5704 5704 5703 5701 5699 5697 5696 5696 5696 5696 5696 5697 5697 5697 5698 5698 5699 5699 5699 5700 5700 5699 5699 5699 5699 5700 5700 5700 5700 5700
5698 5696 5693 5690 5689 5695 5696 5698 5696 5694 5694 5696 5698 5696 5697 5697 5698 5699 5699 5699 5699 5698 5696 5694 5692 5692 5691 5691 5691 5691 5692 5693 5693 5693 5694 5694 5695 5695 5696 5696 5696 5696 5696 5696 5696 5696 5696 5696 5696
5693 5690 5683 5683 5687 5691 5692 5691 5690 5691 5692 5692 5693 5692 5691 5692 5693 5694 5693 5694 5693 5692 5691 5688 5686 5686 5686 5686 5686 5687 5687 5688 5688 5689 5689 5690 5690 5691 5691 5692 5692 5692 5692 5692 5692 5692 5692 5693 5693
5683 5683 5678 5681 5685 5685 5687 5686 5686 5687 5688 5686 5686 5687 5687 5688 5687 5687 5687 5687 5687 5686 5684 5683 5681 5680 5680 5680 5681 5681 5682 5683 5683 5684 5684 5685 5685 5686 5687 5687 5687 5687 5688 5688 5688 5688 5688 5688 5689
5677 5674 5675 5678 5678 5679 5681 5681 5681 5683 5682 5682 5684 5681 5682 5682 5682 5681 5681 5680 5680 5679 5678 5678 5676 5675 5674 5675 5675 5675 5676 5677 5677 5678 5679 5679 5680 5680 5681 5682 5682 5683 5683 5683 5683 5683 5683 5684 5684
5674 5670 5668 5671 5672 5675 5676 5674 5675 5676 5677 5678 5677 5677 5677 5677 5675 5674 5673 5673 5672 5672 5672 5671 5671 5670 5670 5670 5669 5669 5670 5670 5671 5672 5672 5673 5674 5675 5675 5676 5677 5677 5677 5678 5678 5678 5678 5678 5679
5666 5661 5665 5668 5668 5670 5668 5666 5667 5668 5669 5667 5669 5671 5671 5670 5667 5666 5665 5665 5664 5665 5665 5665 5665 5665 5665 5665 5664 5664 5664 5664 5665 5666 5666 5667 5669 5670 5670 5670 5671 5671 5672 5672 5672 5673 5673 5673 5673
5658 5657 5664 5664 5665 5664 5661 5661 5661 5660 5660 5661 5661 5661 5661 5660 5660 5660 5659 5658 5658 5658 5658 5658 5658 5658 5659 5659 5659 5659 5659 5659 5660 5661 5661 5662 5663 5664 5664 5664 5664 5665 5665 5666 5666 5666 5667 5668 5669
5651 5654 5656 5653 5654 5653 5652 5653 5654 5654 5655 5659 5659 5657 5654 5652 5652 5653 5653 5652 5652 5651 5650 5651 5651 5652 5652 5653 5653 5653 5654 5654 5654 5655 5655 5656 5656 5657 5657 5658 5658 5659 5659 5660 5660 5660 5662 5663 5664
5643 5644 5645 5646 5643 5643 5645 5646 5645 5647 5653 5654 5654 5651 5647 5645 5645 5645 5645 5645 5644 5643 5643 5644 5644 5645 5646 5647 5647 5647 5647 5647 5648 5648 5648 5649 5650 5650 5651 5651 5652 5652 5653 5654 5655 5655 5656 5657 5658
5635 5636 5635 5635 5634 5635 5635 5636 5638 5642 5644 5643 5641 5639 5639 5639 5638 5638 5638 5637 5636 5635 5636 5636 5636 5638 5639 5640 5640 5641 5641 5641 5641 5641 5641 5642 5642 5643 5644 5644 5644 5645 5646 5646 5647 5648 5649 5650 5651
5628 5626 5627 5628 5627 5626 5625 5629 5628 5636 5635 5632 5631 5631 5631 5630 5630 5630 5628 5628 5628 5628 5629 5628 5629 5630 5631 5632 5633 5634 5634 5633 5634 5633 5634 5634 5635 5635 5636 5636 5637 5637 5638 5638 5639 5640 5641 5642 5643
5616 5617 5619 5620 5618 5618 5616 5621 5623 5629 5625 5623 5623 5623 5621 5621 5621 5621 5621 5620 5620 5620 5621 5621 5621 5622 5624 5625 5625 5626 5626 5626 5626 5626 5626 5626 5627 5628 5628 5629 5629 5629 5630 5630 5631 5632 5633 5634 5635
5608 5610 5612 5614 5610 5608 5606 5618 5622 5618 5616 5615 5615 5614 5613 5613 5612 5612 5611 5611 5611 5612 5612 5612 5613 5614 5616 5617 5617 5618 5618 5618 5618 5618 5618 5618 5619 5620 5620 5620 5621 5621 5622 5622 5623 5624 5625 5626 5627
5601 5603 5605 5605 5601 5598 5599 5609 5611 5606 5605 5606 5606 5606 5605 5605 5604 5603 5602 5602 5602 5603 5603 5604 5605 5606 5607 5608 5609 5609 5610 5610 5610 5610 5610 5610 5610 5611 5611 5612 5612 5612 5613 5614 5614 5616 5617 5617 5617
5593 5593 5593 5594 5592 5588 5590 5598 5599 5596 5594 5597 5598 5597 5596 5596 5596 5594 5593 5593 5593 5593 5594 5595 5596 5597 5598 5599 5600 5600 5601 5601 5601 5601 5601 5601 5602 5602 5602 5602 5603 5603 5604 5605 5605 5607 5607 5608 5608
5579 5579 5582 5584 5579 5575 5583 5587 5591 5589 5585 5586 5587 5588 5588 5588 5587 5584 5583 5583 5583 5584 5584 5585 5587 5588 5589 5591 5592 5592 5592 5592 5592 5592 5592 5593 5593 5593 5594 5594 5594 5595 5596 5596 5597 5597 5598 5598 5599
5565 5566 5571 5571 5564 5563 5570 5576 5582 5580 5576 5575 5576 5578 5578 5578 5577 5575 5574 5574 5574 5574 5575 5576 5577 5578 5580 5582 5583 5584 5583 5583 5582 5582 5583 5584 5584 5584 5585 5585 5586 5586 5587 5588 5588 5588 5588 5588 5589
5555 5555 5556 5553 5552 5552 5553 5570 5573 5572 5566 5565 5565 5566 5567 5567 5567 5565 5565 5565 5565 5565 5565 5567 5568 5569 5571 5573 5573 5574 5574 5573 5573 5574 5574 5575 5575 5576 5576 5576 5577 5577 5578 5578 5579 5580 5580 5580 5580
5543 5543 5538 5536 5538 5548 5545 5555 5571 5564 5558 5555 5555 5556 5556 5555 5554 5554 5556 5556 5556 5556 5556 5558 5559 5561 5562 5563 5565 5567 5568 5568 5567 5566 5566 5566 5567 5567 5568 5568 5568 5568 5569 5569 5570 5571 5572 5572 5572
5528 5528 5527 5527 5529 5533 5538 5536 5559 5549 5545 5545 5544 5543 5542 5542 5542 5544 5545 5546 5546 5546 5546 5548 5549 5551 5552 5554 5556 5558 5559 5559 5558 5557 5557 5557 5557 5558 5558 5559 5559 5559 5560 5561 5562 5562 5562 5563 5564
5513 5517 5520 5519 5521 5523 5533 5530 5543 5536 5533 5532 5531 5529 5527 5527 5529 5531 5533 5533 5534 5534 5535 5537 5539 5540 5542 5544 5546 5548 5549 5549 5549 5549 5549 5549 5549 5549 5549 5550 5550 5550 5551 5552 5553 5553 5554 5555 5556
5502 5507 5512 5514 5516 5525 5521 5519 5522 5519 5515 5515 5514 5513 5513 5514 5516 5518 5519 5521 5522 5523 5524 5526 5528 5530 5531 5533 5535 5536 5537 5538 5539 5540 5540 5540 5540 5540 5540 5541 5542 5542 5542 5543 5544 5545 5546 5547 5547
5489 5492 5495 5500 5513 5519 5509 5510 5511 5500 5496 5496 5497 5498 5500 5501 5502 5503 5505 5508 5509 5510 5512 5514 5516 5519 5520 5521 5522 5524 5525 5526 5527 5528 5529 5530 5531 5531 5531 5531 5532 5533 5534 5534 5535 5536 5536 5538 5538
5477 5479 5479 5480 5487 5490 5504 5502 5491 5486 5482 5481 5482 5484 5486 5488 5489 5490 5492 5495 5496 5497 5499 5502 5505 5507 5508 5509 5510 5511 5512 5514 5515 5516 5517 5518 5519 5520 5521 5522 5523 5523 5525 5525 5526 5527 5527 5528 5528
5462 5463 5464 5465 5470 5483 5494 5493 5485 5476 5470 5468 5468 5469 5471 5472 5475 5476 5478 5480 5482 5484 5486 5489 5492 5494 5495 5496 5498 5499 5500 5501 5503 5504 5505 5507 5508 5510 5511 5512 5513 5514 5515 5516 5516 5517 5517 5518 5517
5447 5445 5447 5454 5458 5465 5475 5478 5462 5458 5454 5452 5452 5454 5456 5459 5460 5462 5464 5467 5469 5472 5474 5477 5479 5480 5481 5483 5485 5487 5488 5489 5491 5492 5494 5495 5497 5499 5500 5501 5502 5504 5504 5505 5507 5507 5507 5508 5507
5433 5432 5432 5435 5442 5447 5454 5457 5443 5440 5438 5436 5437 5439 5442 5445 5447 5449 5451 5453 5455 5458 5461 5463 5466 5468 5469 5471 5472 5474 5475 5477 5478 5480 5482 5484 5486 5488 5489 5490 5492 5493 5494 5495 5496 5497 5497 5498 5498